CAPE
2 2 2 0 0 1 3 3 0 1 0 0 0 0 0 0 0 0 0 0 0 0 0 0 0 0 0 0 0 0 0 0 0 2 2 13 37 51 201 34 30 51 91 215 107 113 219 555 466 545 805 795 910 1279
7 1 0 0 0 0 4 2 0 0 0 0 0 0 0 0 0 0 0 0 1 0 0 0 0 0 0 0 0 0 0 0 18 0 0 8 31 103 153 118 40 17 18 44 215 378 64 189 554 792 723 750 864 965
4 5 0 0 0 0 2 2 1 1 1 0 0 0 0 0 0 0 7 5 1 0 0 0 0 0 0 0 0 0 0 0 1 17 139 42 44 41 51 83 35 64 167 255 103 83 526 428 536 614 647 868 827 792
5 3 2 0 0 0 0 2 1 1 0 0 0 0 0 0 0 0 1 9 1 0 0 0 0 0 0 0 0 0 0 0 0 0 0 0 6 20 10 6 63 134 522 276 84 8 190 517 632 421 346 566 644 823
1 5 8 3 0 0 0 2 0 1 2 0 0 0 0 0 0 0 1 2 13 4 0 0 0 0 0 0 0 0 0 0 0 0 0 0 6 40 18 0 6 24 33 45 126 670 684 457 466 195 145 407 668 629
0 6 2 0 1 0 1 1 1 1 1 0 0 0 0 0 0 5 7 2 5 14 7 0 0 0 0 0 0 0 0 0 0 0 0 0 11 0 0 4 43 65 71 125 269 446 369 410 204 0 221 523 645 555
2 2 2 0 8 13 0 0 1 1 0 0 1 0 0 0 0 5 1 2 0 17 6 0 0 0 0 0 0 0 0 0 0 0 0 0 0 0 0 0 0 20 40 78 162 37 14 3 10 0 43 524 589 485
2 1 0 1 8 13 1 1 2 1 0 0 0 0 0 0 0 4 2 0 5 0 7 5 0 0 0 2 1 4 0 0 0 0 0 0 0 0 0 0 0 0 0 0 0 0 0 0 0 0 60 301 471 483
0 0 0 13 17 2 1 2 1 0 0 8 0 0 8 12 18 6 0 0 33 6 3 13 7 25 3 14 22 4 15 8 0 0 0 0 0 0 0 0 15 16 2 2 0 0 3 1 0 197 374 348 457 802
0 0 4 11 2 1 2 1 0 1 3 0 7 1 0 2 0 0 4 18 1 6 11 2 0 0 4 22 28 21 21 19 13 2 4 3 1 10 11 17 40 215 372 263 40 0 1 18 238 186 225 329 505 1038
0 8 2 2 1 2 1 0 10 2 10 17 6 5 5 2 28 46 48 23 8 5 1 0 2 0 0 23 19 61 63 27 9 1 8 16 12 25 157 449 619 612 916 872 584 423 174 9 16 126 122 419 725 1586
3 0 1 2 2 2 0 7 3 7 6 5 4 1 2 12 14 42 25 25 7 5 15 13 10 0 14 23 39 20 41 62 43 48 32 24 402 846 696 576 460 606 931 990 1043 793 673 188 41 113 117 518 1422 2143
1 1 2 2 2 0 7 7 4 0 0 0 10 15 4 4 5 15 15 20 14 11 43 35 33 34 19 59 58 67 38 43 86 44 50 229 622 768 688 661 739 927 1081 1285 973 628 593 407 85 81 593 1363 1979 1923
2 2 3 3 3 6 3 7 0 0 0 11 24 3 13 10 16 4 0 17 25 26 24 43 42 56 76 76 78 38 57 86 37 16 29 571 625 755 771 824 797 800 1173 1171 775 421 273 120 216 1002 1179 1738 1651 1128
2 2 3 1 3 11 14 10 7 0 8 33 24 0 2 21 22 18 15 31 42 52 45 21 79 90 46 53 38 47 52 17 14 44 201 514 759 751 743 649 528 644 1328 1518 1426 1256 1291 1290 1421 1435 1628 1744 1405 1115
4 4 3 4 12 11 8 5 0 0 34 29 25 23 37 31 15 42 29 25 29 14 68 62 66 44 20 36 40 34 23 17 120 250 240 354 637 466 342 371 675 957 1483 1849 1805 1784 1863 1822 1890 1972 2140 2073 1590 1295
0 1 0 15 7 5 3 0 0 0 23 30 25 14 22 30 30 29 27 27 91 18 40 54 37 25 36 32 44 61 55 317 323 158 103 405 519 423 424 617 763 1292 1356 1665 1666 2020 1854 1860 1620 1619 1718 1679 1597 1252
1 2 8 0 5 6 3 1 0 0 10 11 18 16 30 0 20 1 22 50 130 65 29 29 62 40 32 34 69 198 233 228 183 180 141 214 473 509 463 568 701 1081 1205 1033 1317 1490 1557 1423 1333 1286 1064 966 930 859
1 6 2 2 9 9 2 1 0 2 6 5 15 7 17 12 0 0 7 18 20 26 14 48 11 19 41 51 38 46 59 28 22 13 23 42 508 415 488 418 734 869 964 435 897 1097 1225 1300 1073 1001 776 713 630 576
3 4 2 1 1 13 2 15 2 4 14 15 30 45 26 14 31 19 15 16 10 37 21 9 11 63 36 10 22 31 18 8 11 10 16 22 88 436 351 206 726 712 574 654 600 527 672 715 659 752 845 801 713 571
19 5 0 0 0 0 26 16 5 6 8 18 10 22 17 6 23 41 65 85 44 26 10 19 25 16 33 38 18 26 18 18 12 20 11 7 29 183 157 94 160 227 247 299 193 150 200 201 212 224 280 309 303 276
0 0 1 0 3 35 25 36 19 22 15 14 24 28 35 51 87 93 25 20 13 4 2 10 14 21 31 2 10 9 19 15 11 11 7 4 10 76 60 203 193 85 45 24 50 84 91 86 104 117 106 87 50 0
0 1 9 7 7 3 5 26 27 29 18 5 9 1 0 0 0 2 0 7 11 0 0 0 1 2 5 24 39 39 32 30 25 29 30 30 50 92 20 185 51 0 0 50 38 34 53 24 1 2 0 0 0 0
0 34 7 2 6 2 1 0 0 7 3 4 0 0 4 1 5 0 0 0 0 1 6 2 48 9 7 13 26 49 64 46 35 51 57 6 4 43 8 11 3 14 39 41 5 0 0 0 0 0 0 0 0 0
3 0 0 0 5 14 17 19 18 11 3 2 5 1 3 1 3 5 1 16 13 11 2 4 9 11 5 6 19 4 3 19 25 20 27 9 9 17 15 3 13 77 162 126 53 23 2 0 1 0 0 0 0 0
0 17 0 21 29 22 24 7 5 2 3 3 2 9 5 15 12 6 19 35 11 6 21 2 4 1 1 4 0 2 6 2 6 7 5 4 1 0 0 0 4 32 98 171 230 138 124 115 77 36 20 3 0 0
0 4 19 10 16 20 20 10 7 3 7 10 8 8 2 6 2 11 27 27 21 18 2 1 0 0 0 1 0 10 11 3 9 11 7 2 1 8 12 12 41 110 89 117 137 283 214 179 131 85 100 73 81 70
4 0 25 33 25 24 17 15 10 4 8 12 19 6 14 23 27 12 4 0 1 4 31 7 0 0 1 12 0 6 5 0 6 55 77 28 4 0 24 41 65 71 83 384 205 128 54 34 20 21 46 84 114 127
18 24 26 36 18 9 0 1 7 2 28 1 1 0 3 0 0 0 0 0 0 0 1 41 3 1 12 42 23 4 4 0 0 0 0 4 15 20 33 59 85 44 17 4 0 2 7 2 3 7 20 34 23 37
26 23 23 16 3 5 11 15 15 7 0 0 0 0 0 0 0 0 0 0 0 0 0 0 5 25 29 33 74 69 48 32 35 46 60 33 50 35 33 37 38 50 40 30 33 16 0 8 15 26 27 47 63 21
2 22 17 0 1 16 4 26 30 56 35 0 0 0 0 0 0 0 0 0 0 0 0 0 0 0 9 4 16 34 7 0 0 1 3 27 33 59 60 49 42 48 42 44 48 42 45 34 42 36 28 42 35 45
21 24 10 12 12 1 5 16 16 25 47 43 24 30 14 0 0 0 0 0 0 0 0 0 0 0 0 0 0 0 0 0 0 0 0 0 0 0 1 1 12 33 36 44 44 50 59 50 69 61 70 61 82 67
31 18 20 1 0 2 2 1 0 0 0 19 12 27 10 0 0 0 0 0 0 0 0 0 0 0 0 0 0 0 0 0 0 0 0 0 0 0 0 0 0 0 0 0 10 20 26 18 15 14 16 20 26 36
CIN
-5 -10 -7 0 0 0 0 0 0 0 0 0 0 0 0 0 0 0 0 0 0 0 0 0 0 0 0 0 0 0 0 0 0 -3 -2 -5 -6 -30 -6 -2 -4 -25 -24 -7 -15 -19 -2 -2 -14 -4 -34 -53 -73 -69
-2 -7 -2 0 0 0 0 0 0 0 0 0 0 0 0 0 0 0 0 0 -2 0 0 0 0 0 0 0 0 0 0 -1 -7 0 -1 -5 -6 -42 -25 -32 -6 -4 -3 -11 -14 -4 -213 -92 -25 -50 -37 -56 -54 -70
-1 -3 -10 0 0 0 0 0 0 0 0 0 0 0 0 0 0 0 -1 -1 0 0 0 0 0 0 0 0 0 0 0 0 0 -76 -24 -21 -6 -5 -53 -46 -4 -31 -13 -3 -3 -8 -3 -2 -11 -49 -57 -47 -57 -52
-1 -3 -8 -14 0 0 0 0 0 0 0 0 0 0 0 0 0 0 -2 -1 -1 0 0 0 0 0 0 0 0 0 0 0 0 0 0 0 -3 -1 -3 -4 -38 -5 -15 -2 -10 -14 -4 -1 -8 -64 -67 -53 -61 -50
-2 -3 -6 -10 -4 0 0 0 0 0 0 0 0 0 0 0 0 0 -2 -1 -1 0 0 0 0 0 0 0 0 0 0 0 0 0 0 0 -2 -2 -3 0 -4 -2 -6 -4 -9 -5 -10 -34 -8 -59 -78 -48 -40 -61
-1 -2 -14 -1 -2 0 -3 0 0 0 0 0 0 0 0 0 0 0 0 -2 -1 0 0 0 0 0 0 0 0 0 0 0 0 0 0 0 -6 0 0 -2 -2 -3 -3 -38 -1 -29 -43 -23 -31 -1 -49 -12 -12 -37
-1 -9 -22 0 -2 0 0 0 0 0 0 0 0 0 0 0 0 0 -1 -1 -3 -1 0 0 0 -1 0 0 0 0 0 0 0 0 0 0 0 0 0 0 0 -5 -3 -70 -39 -83 -143 -80 -89 0 -61 -21 -6 -16
-4 -7 0 -4 -2 -1 0 0 0 0 -1 -1 0 0 0 0 0 -1 -2 0 0 0 0 -1 0 0 0 -1 -1 -1 0 0 0 0 0 0 0 0 0 0 0 0 -1 0 0 0 0 0 0 0 -42 -17 -8 -12
-9 0 0 0 0 0 0 0 0 0 0 0 0 0 0 -1 0 -1 0 0 0 0 0 0 -1 0 -1 -2 -3 -2 -2 -2 0 0 0 0 0 0 0 0 -2 -2 -3 -2 0 0 -35 -6 0 -47 -9 -6 -3 -6
0 0 0 0 0 0 0 0 0 0 0 0 -1 0 0 0 0 0 0 -1 0 -8 0 0 0 0 -1 -1 -2 -2 -3 -4 -4 -4 -3 -3 -3 -4 -2 -5 -5 -3 -2 -10 -61 -2 -1 -49 -8 -15 -11 -5 -2 -2
0 0 0 0 0 0 0 0 0 -1 -2 0 -1 0 -1 -7 -2 0 0 0 -1 -1 0 0 -1 0 -1 -20 -12 -4 -13 -3 -1 -1 -2 -3 -4 -2 -4 -10 -9 -14 -3 -3 -7 -13 -26 -49 -31 -6 -4 -4 -1 -11
0 0 0 0 0 0 0 0 -1 -1 -1 -4 -4 -3 -11 -1 -1 0 -1 0 0 0 -1 -20 -32 0 -37 -17 -14 -4 -3 -3 -2 -18 -3 -2 -10 -9 -19 -30 -32 -35 -27 -22 -5 -5 -15 -53 -46 -23 -15 -9 -2 -1
0 0 0 0 0 0 0 0 -2 0 -17 0 -6 -7 -2 -1 0 0 0 0 0 -2 -4 -1 -3 -11 -7 -3 -8 -3 -1 -2 -3 -6 -2 -14 -18 -2 -26 -43 -35 -26 -24 -7 -9 -38 -39 -48 -41 -37 -31 -12 0 -1
0 0 0 0 0 0 0 0 0 0 -2 -1 0 0 0 -1 -2 -3 0 -1 -1 -5 -15 -5 -4 -6 -2 -6 -2 -1 -2 -7 -1 -4 -4 -4 -3 -15 -39 -23 -33 -64 -36 -2 -17 -36 -34 -46 -38 -21 -32 -25 -2 -24
0 0 0 0 0 0 0 -1 0 0 -1 0 0 0 -2 -1 -1 -2 -11 -8 -4 -2 -10 -3 -1 -2 -2 -4 -3 -3 -2 -2 -3 -3 -14 -6 -12 -24 -20 -42 -111 -116 -24 -2 -3 -15 -23 -32 -26 -27 -19 -8 -8 -7
0 0 -1 0 0 0 -2 -5 0 0 0 -2 0 0 0 -1 -1 0 -1 -2 -10 -7 -7 -8 -1 -1 -2 -3 -2 -2 -2 -2 -11 -2 -4 -3 -15 -48 -73 -97 -78 -61 -13 -1 -1 -7 -9 -30 -26 -17 -7 -6 -11 -25
0 0 -1 0 0 -1 -8 0 0 0 -3 0 -1 -1 -1 0 -1 -1 -1 -5 -2 -1 -2 -1 0 -1 -1 -1 0 -2 -5 -6 -2 -8 -6 -2 -18 -52 -68 -49 -46 -8 -11 -6 -12 -7 -21 -14 -33 -24 -7 -3 -4 -16
0 0 0 -5 -4 0 -3 -9 -6 0 0 -3 -1 -4 -1 0 -1 -5 -2 -2 -1 -1 -1 -1 -1 -1 -1 -1 -4 -8 -2 0 -2 -1 -4 -9 -12 -31 -54 -55 -41 -6 -3 -19 -14 -6 -8 -13 -10 -10 -19 -20 -17 -26
0 0 -1 -4 -5 -9 -4 -3 -3 0 -1 -3 -2 -2 -2 -1 0 0 -18 -4 -1 -3 -1 0 -1 -3 -3 -2 -5 -3 -7 -8 -6 -9 -6 -28 -1 -22 -35 -60 -21 -2 -1 -67 -23 -2 -6 -4 -3 -3 -9 -9 -4 -15
0 0 -15 -33 -34 -10 -7 0 -1 -1 0 -4 -2 -1 -1 -2 -3 -2 -1 -1 -3 -1 -1 -1 -19 -2 -3 -20 -12 -11 -9 -6 -2 -2 -2 -1 -35 0 -9 -43 -1 0 0 -1 -4 -29 -35 -35 -30 -7 -2 -2 -1 -2
0 -5 0 0 0 0 0 -2 -2 -2 -1 -1 -1 -1 0 -2 -1 -1 -1 -2 0 0 -1 -2 -1 -3 -5 -6 -10 -6 -2 0 -2 -2 -2 -3 -66 -4 -5 -19 -7 -11 -2 -1 -3 -19 -16 -30 -55 -70 -20 -14 -10 -3
0 0 -8 0 0 0 0 0 -1 -1 0 -1 -1 -1 -1 0 0 0 0 0 0 -2 -10 -3 -2 -2 -1 -13 -14 -4 -1 -2 -4 -2 0 0 -9 -8 -1 -1 0 -8 -32 -74 -18 -1 -13 -20 -5 -1 -6 -47 -31 0
0 -2 0 -2 -2 -1 -1 0 0 0 -1 -2 -2 -2 0 0 0 -9 0 -1 -5 0 0 -2 -20 -18 -2 -1 -3 -2 -2 -1 -1 -1 -1 -22 -8 -7 -2 -1 -4 0 0 -10 -20 -20 -32 -24 -25 -17 0 0 0 0
0 0 -4 -2 -1 -3 -1 -9 0 -4 -1 0 0 -1 -1 -2 -5 -2 0 0 0 0 -1 -9 -1 -10 -15 -12 0 0 0 -1 -3 -7 -34 -24 0 -4 -37 -29 -18 -44 -61 -4 -3 -12 0 0 0 0 0 0 0 0
0 0 -1 0 -3 0 0 0 0 -2 -1 -2 -1 -1 -3 -4 -2 0 0 0 -5 -1 -1 0 0 0 -2 -1 0 -1 -8 -4 0 0 0 -1 -4 -1 -11 -41 -50 -56 -34 -9 -3 -1 -6 0 -1 0 0 0 0 0
-1 0 -2 -1 0 -1 -1 -1 -1 -2 -3 -2 -3 -1 -6 -1 0 0 0 -6 -5 -5 -15 -31 -33 -37 -37 -45 -6 -42 -31 -21 -12 -13 0 0 0 0 0 0 -50 -46 -63 -47 -25 -7 -2 -3 -1 -1 -2 -2 0 0
-1 -7 -2 -8 -3 -2 -1 -4 -1 -1 -1 -1 0 0 -3 0 0 0 0 -1 -1 -6 -17 -32 0 0 0 -26 0 -70 -66 -17 -24 -15 -17 -25 -25 -31 -20 -24 -21 -38 -69 -54 -50 -14 -1 -2 -2 -1 -1 -4 -5 -4
-5 -4 0 0 -2 -3 0 0 0 -1 0 -3 -1 -1 0 -1 0 -3 -26 -4 -19 -27 -48 -65 -19 0 -40 -18 0 -55 -59 0 -51 -27 -9 -25 -63 -20 -88 -76 -56 -82 -125 -19 -21 -5 -3 -1 -1 -1 -1 0 -2 -2
0 -1 -1 -1 -2 -4 -7 0 0 -6 -4 -6 -2 0 0 0 0 0 0 0 0 0 -2 -28 -60 -63 -25 -11 -12 -25 -32 -1 0 -4 -2 -25 -14 -37 -71 -60 -43 -55 -20 -32 0 -6 -23 -17 -19 -24 -9 -4 -5 -2
0 -1 0 -1 -5 0 -1 0 -3 -2 0 0 0 0 0 0 0 0 0 0 0 0 0 0 -2 -2 -2 -3 -1 -3 -4 -11 -13 -4 -2 -1 -2 -2 -7 -4 -3 -2 -3 -5 -6 -14 -7 -7 -4 -21 -12 -3 -3 -24
-1 -1 -2 0 -1 0 -24 -5 -6 -3 -2 0 0 0 0 0 0 0 0 0 0 0 0 0 0 0 -3 -4 -7 -1 -2 0 0 -13 -11 -12 -8 -2 -4 -3 -2 -2 -3 -2 -3 -2 -3 -4 -4 -5 -8 -3 -5 -3
-1 -2 0 -1 0 -4 -14 -7 -7 0 -1 -4 -7 -3 -5 0 0 0 0 0 0 0 0 0 0 0 0 0 0 0 0 0 0 0 0 0 0 0 -1 -5 -11 -4 -4 -2 -2 -2 -2 -2 -3 -2 -2 -2 -2 -3
-1 -1 -2 -9 -10 -2 -14 -16 -7 0 0 -1 -1 -3 -2 0 0 0 0 0 0 0 0 0 0 0 0 0 0 0 0 0 0 0 0 0 0 0 0 0 0 0 0 0 -3 -5 -3 -7 -13 -10 -6 -7 -8 -6
Wind_Speed
33 33 32 31 30 30 30 28 23 18 17 17 18 19 19 20 19 20 19 17 20 22 27 21 23 22 20 19 23 18 20 18 23 18 23 26 27 19 20 19 14 13 8 6 18 17 12 23 22 25 24 26 27 26
34 33 33 33 33 32 31 28 20 16 15 15 15 16 17 18 18 19 20 18 20 22 25 24 26 27 25 24 24 21 21 19 18 19 21 28 30 23 20 16 14 8 8 22 10 11 22 33 18 23 26 27 28 29
34 33 33 33 34 33 31 28 18 14 12 12 13 14 15 16 16 18 20 20 20 24 30 24 24 22 17 22 22 22 18 18 18 20 22 20 23 27 23 10 13 6 20 16 16 26 20 23 18 22 25 25 28 28
32 32 32 33 34 32 30 26 15 13 12 12 12 13 13 14 15 17 18 19 21 23 22 17 18 19 18 18 21 23 27 18 22 20 24 24 23 18 22 23 25 17 17 17 16 20 12 20 19 24 26 26 26 26
30 30 30 31 32 31 28 24 15 12 10 10 12 12 11 13 13 16 20 20 19 20 22 23 27 23 19 21 19 19 21 22 21 22 19 23 24 25 24 30 19 16 13 12 17 18 9 18 20 26 28 27 25 25
30 28 29 30 29 28 25 20 13 12 11 11 10 9 9 11 12 16 18 16 17 18 21 22 21 21 18 19 18 17 17 18 20 22 23 25 26 20 23 18 16 11 17 12 19 12 7 14 27 30 28 27 22 23
29 30 30 29 27 24 24 17 13 11 11 11 8 9 10 9 10 16 18 17 18 17 20 23 22 16 18 17 15 15 14 16 18 22 26 27 25 18 28 22 26 28 26 23 17 25 33 31 33 29 28 26 22 24
29 30 29 28 24 21 17 14 11 9 9 8 7 6 9 11 18 18 16 13 16 17 19 21 22 20 16 17 16 14 15 16 17 22 20 20 22 16 22 27 25 17 15 23 20 18 16 32 34 33 31 28 26 23
29 29 29 26 22 17 13 13 10 8 8 5 2 2 10 17 15 14 11 11 16 19 21 22 24 22 16 20 16 16 17 20 20 18 19 21 19 18 19 17 18 21 25 29 29 14 17 16 15 24 20 22 26 24
29 28 25 21 16 13 13 12 11 11 9 8 3 13 15 13 7 6 12 16 18 19 22 27 28 26 19 19 20 15 17 22 20 19 18 15 21 24 20 25 28 30 31 33 35 32 24 28 19 20 22 27 26 20
25 25 24 11 14 14 14 14 13 12 8 12 12 13 12 6 9 12 16 18 18 22 23 24 25 25 17 18 20 20 19 19 22 20 13 18 14 10 11 18 23 27 27 27 24 33 36 33 25 25 24 20 16 16
23 15 10 14 15 15 16 15 18 7 9 10 8 8 8 11 12 14 16 20 22 24 19 20 21 22 19 18 20 20 19 18 19 13 19 23 14 13 17 22 26 28 28 29 29 30 29 23 30 29 25 17 12 11
8 12 13 13 14 15 15 17 9 7 4 7 10 9 10 11 15 19 24 21 17 17 18 21 17 20 17 18 21 17 19 18 11 18 19 14 10 16 20 24 27 28 28 28 28 26 26 7 14 18 13 11 4 6
10 10 11 12 13 13 14 11 12 14 14 13 12 12 13 18 22 22 24 19 16 15 3 19 21 17 18 16 19 20 18 18 18 21 20 13 16 20 22 25 27 26 25 23 18 15 12 13 12 8 8 5 1 4
8 9 10 11 12 13 12 13 16 17 17 15 13 13 21 20 20 19 17 19 18 13 11 16 20 20 14 18 19 17 17 17 17 17 14 15 19 21 23 24 25 24 23 19 16 15 13 13 12 12 8 5 6 8
9 10 18 18 11 10 9 12 14 16 16 16 18 19 20 21 22 16 19 19 12 15 17 18 17 15 15 15 17 16 18 16 15 13 14 17 20 22 23 23 23 21 21 19 15 13 11 9 8 8 7 5 4 6
13 19 16 8 10 11 13 15 16 17 18 18 19 19 20 20 18 17 16 18 18 18 19 17 18 17 16 19 17 18 18 15 16 15 18 19 21 22 23 22 21 20 18 14 13 11 10 9 8 7 6 5 5 5
15 15 9 11 8 13 19 18 17 17 18 20 20 19 19 19 19 19 19 21 18 19 22 20 20 19 18 20 19 16 15 17 18 19 21 22 23 23 23 23 22 21 15 15 15 10 7 7 7 8 7 7 7 7
14 12 8 13 17 17 16 21 18 18 20 20 20 20 19 16 19 21 20 20 20 19 20 19 20 22 24 22 18 17 18 18 20 23 24 24 22 23 24 23 21 19 16 15 18 15 10 12 10 8 7 5 6 6
9 11 11 12 16 17 17 18 16 19 18 19 20 21 22 22 21 22 23 23 24 21 21 21 25 26 25 22 22 24 24 25 26 27 27 25 23 23 24 23 20 18 15 12 12 11 10 9 10 11 12 9 7 7
15 19 19 15 16 19 19 21 24 20 19 19 19 20 21 20 23 22 23 23 25 24 29 30 30 30 28 28 28 28 29 31 33 31 30 29 25 24 24 20 17 16 15 16 14 13 13 12 13 11 9 8 8 7
13 15 15 16 17 18 19 20 19 18 19 19 19 19 19 19 20 21 22 25 27 30 30 31 31 31 32 34 35 35 35 33 33 32 31 31 29 26 22 19 14 13 13 11 18 11 11 9 12 10 12 11 11 10
20 18 17 17 16 17 17 18 18 18 18 17 17 18 18 20 21 22 23 23 23 24 27 28 29 30 30 30 28 29 29 30 31 30 28 27 26 25 19 14 10 7 10 9 11 10 9 9 11 13 11 10 8 7
18 17 16 16 17 16 17 17 18 16 16 16 18 17 16 15 15 16 16 16 17 19 20 21 21 23 23 25 26 25 24 26 27 27 22 22 20 14 8 5 6 6 23 12 11 7 5 10 13 12 9 8 8 7
17 17 18 17 17 16 16 15 15 14 14 14 14 15 15 13 14 14 12 14 8 8 8 9 9 11 14 14 14 15 16 17 19 24 21 14 12 4 1 5 7 11 10 7 9 5 7 10 9 8 9 9 9 9
17 17 17 14 13 13 11 11 12 14 16 19 16 16 15 14 13 12 12 6 3 9 8 4 6 6 6 6 7 7 7 10 10 5 4 5 4 2 2 5 7 12 12 12 13 12 8 10 12 12 11 10 12 13
17 16 14 14 12 10 12 14 14 16 19 18 14 17 14 12 9 9 9 5 8 11 10 11 11 11 12 8 6 8 9 15 17 19 15 1 1 12 24 27 29 22 17 16 17 17 16 17 18 16 13 15 15 14
15 14 11 10 10 8 13 12 11 12 13 13 14 11 13 10 9 7 8 4 6 8 10 9 10 11 5 3 13 5 20 20 9 14 15 24 24 27 26 23 21 19 18 18 17 8 17 17 18 18 17 15 13 12
15 12 11 6 7 11 8 7 7 7 7 9 15 14 13 15 14 11 10 4 1 1 1 23 19 14 10 16 8 11 11 3 26 23 20 20 21 22 21 19 18 16 12 14 15 16 17 19 19 19 19 17 17 15
12 11 9 5 5 6 9 10 12 12 17 21 32 31 26 14 9 11 10 4 9 8 9 11 11 13 14 13 16 17 15 14 15 15 16 16 16 16 16 16 17 17 17 15 14 14 16 15 13 12 12 14 17 20
14 12 10 9 8 10 13 11 10 11 20 26 27 28 28 23 3 12 12 11 13 12 13 14 15 13 15 17 14 14 17 17 18 17 17 18 18 19 19 19 20 20 20 20 20 19 18 19 19 18 19 20 18 18
12 10 10 10 10 10 10 8 8 7 6 7 6 11 24 21 20 14 15 16 17 18 18 19 19 19 16 19 20 21 20 20 21 21 21 21 21 21 21 22 22 22 22 21 20 18 17 18 19 20 20 19 19 17
11 9 8 9 10 9 12 11 10 10 9 10 15 9 19 20 20 16 16 20 21 20 21 22 23 23 23 22 21 21 20 20 21 22 23 23 24 24 24 24 25 25 24 23 22 21 21 22 22 22 23 23 23 24
Wind_Direction
271 269 267 264 265 264 262 261 261 264 270 279 286 292 294 297 302 298 303 304 294 290 282 298 286 284 290 288 276 296 290 289 275 280 276 275 274 292 294 293 304 316 305 293 317 307 293 309 302 292 302 303 304 303
266 264 263 260 257 258 257 258 256 256 262 275 284 292 294 297 299 296 298 303 297 290 286 295 285 280 279 281 280 284 286 286 292 285 279 271 270 289 296 302 308 267 281 313 323 328 319 229 320 312 308 298 298 297
263 261 259 258 253 253 254 257 254 245 253 268 279 289 291 296 298 292 297 300 298 293 289 287 287 289 282 275 275 279 288 291 289 290 286 290 281 283 293 294 306 288 309 308 309 303 319 327 335 322 313 304 298 295
262 260 258 254 251 249 252 255 245 236 244 262 275 283 291 297 300 293 298 300 296 294 293 297 302 293 289 279 271 269 270 293 285 292 279 282 288 298 292 294 300 312 324 315 315 296 304 311 315 309 304 300 298 298
261 258 258 255 251 246 249 251 236 229 244 256 271 279 289 298 304 296 293 293 295 295 291 288 288 286 289 277 277 273 272 277 287 283 284 281 284 288 292 282 305 306 300 295 317 316 310 305 303 299 295 291 296 296
257 256 257 254 249 241 244 245 229 228 241 253 266 275 285 299 304 299 298 295 292 295 292 285 294 285 284 282 277 279 274 276 278 280 281 279 282 295 294 302 308 312 306 302 300 330 26 322 297 278 285 287 302 304
249 251 250 248 244 237 241 229 220 230 238 246 255 267 279 292 300 299 298 300 293 293 290 284 283 284 283 282 276 280 284 280 279 276 275 277 282 292 284 296 295 296 299 305 311 298 285 292 274 275 280 284 303 304
244 244 242 240 239 234 229 208 210 215 219 235 250 266 275 295 291 294 299 306 301 292 288 283 276 278 277 276 277 282 282 280 281 278 287 285 286 289 291 291 297 309 313 304 253 223 226 283 272 262 266 281 288 298
239 235 233 234 232 225 193 191 190 185 195 179 189 287 295 291 297 302 320 316 299 289 280 274 268 267 280 270 276 274 276 277 283 285 283 287 286 288 295 297 304 308 306 296 292 308 295 303 309 289 298 296 290 295
224 224 229 226 219 179 173 175 172 167 152 135 257 289 293 298 343 346 311 300 293 288 279 269 265 266 275 265 261 269 269 273 285 287 291 279 285 288 290 291 293 295 294 280 264 271 283 274 298 291 294 282 290 302
220 217 218 203 157 162 163 159 154 145 151 258 279 290 302 334 319 309 299 288 282 283 273 271 263 252 271 266 258 267 276 285 285 285 292 298 297 293 305 302 298 300 301 295 297 267 251 266 281 282 293 307 314 313
210 214 149 147 152 152 152 148 140 205 249 269 295 316 319 312 310 303 292 274 268 270 281 264 256 250 266 264 258 263 275 285 288 296 283 283 306 314 307 296 296 301 297 289 286 273 268 282 263 271 290 314 316 306
153 133 133 141 150 158 150 140 194 233 253 259 296 315 315 295 288 278 252 261 289 285 273 252 256 251 265 262 261 275 274 280 309 287 287 310 331 313 303 297 297 299 296 291 289 281 271 294 288 295 316 319 325 300
134 142 144 149 153 150 143 166 217 227 242 274 294 293 296 271 260 253 248 276 272 288 332 242 243 258 255 254 265 267 279 287 290 285 282 316 313 310 302 300 302 299 298 300 307 296 291 287 294 323 332 28 332 289
135 156 165 161 180 142 181 209 220 229 244 263 290 296 251 260 263 267 277 262 270 282 274 258 253 255 261 262 268 275 284 288 292 290 301 311 309 308 302 305 302 299 288 299 298 293 291 291 296 304 335 0 68 95
158 174 194 198 142 159 191 221 231 248 259 264 266 256 252 246 243 275 264 264 286 262 261 257 266 278 274 280 277 280 279 290 291 301 314 307 302 303 305 302 297 293 282 282 287 292 301 308 320 329 340 353 354 13
205 198 202 146 157 198 217 229 240 243 256 274 257 268 269 261 270 273 277 265 257 256 253 266 267 272 278 271 277 280 281 291 291 302 300 301 298 301 300 297 295 296 293 297 290 293 298 313 328 347 355 6 326 355
191 189 135 120 186 213 221 233 242 252 259 248 249 255 261 260 271 264 260 244 252 255 250 259 272 269 271 271 276 290 292 289 291 292 291 294 295 295 295 292 287 286 303 293 283 298 318 329 334 328 341 334 326 326
187 184 166 198 211 220 234 224 238 248 245 242 241 247 249 266 238 232 243 248 253 266 265 273 272 268 267 278 287 289 290 293 285 280 281 287 293 290 289 288 283 291 299 288 271 276 302 299 311 317 328 6 331 343
177 193 206 225 220 220 222 231 255 232 238 232 229 222 224 227 238 235 234 245 247 265 269 272 267 264 274 289 288 277 274 279 276 273 277 283 289 292 291 285 284 292 299 310 300 308 311 310 304 299 297 306 320 327
195 198 204 229 229 219 218 208 198 217 228 225 231 232 228 236 234 251 255 263 257 263 246 243 245 254 276 277 278 279 274 270 264 266 267 266 284 290 288 289 287 296 300 295 294 296 299 297 292 297 299 320 329 326
201 203 213 219 217 215 216 214 219 229 223 220 231 230 232 236 242 252 265 254 257 238 233 239 241 247 253 251 249 253 255 255 253 255 260 266 269 277 286 281 283 298 324 334 274 314 318 323 293 305 296 282 284 301
182 192 201 202 205 204 204 205 205 211 209 226 238 243 269 278 276 280 254 254 250 267 266 261 264 253 246 254 262 258 250 244 242 249 264 268 269 270 279 280 299 335 335 340 294 314 346 293 258 253 263 283 312 329
185 194 197 196 189 190 186 183 190 208 225 235 253 233 229 213 221 200 221 237 249 267 277 260 259 251 261 261 258 259 267 262 255 259 281 277 274 280 279 308 13 48 159 76 61 32 309 257 242 257 295 314 337 6
183 183 181 181 187 189 189 189 192 222 225 227 205 198 192 209 175 188 189 192 228 292 294 302 284 240 250 265 277 286 292 285 281 251 251 264 267 277 270 294 275 253 264 291 44 331 297 268 282 323 351 7 6 10
181 181 182 193 196 194 209 205 203 183 174 155 164 156 176 177 170 158 159 206 277 335 328 300 298 307 307 261 248 251 298 318 315 313 324 317 330 29 323 53 254 253 268 268 269 286 323 305 291 310 325 347 326 324
182 184 189 187 180 187 191 177 175 171 161 156 168 153 155 146 137 136 139 128 135 135 136 140 140 145 136 135 135 157 163 149 141 135 147 98 131 159 120 110 144 186 211 221 216 220 234 244 255 301 337 331 327 333
197 198 199 194 174 183 172 169 173 168 169 164 161 163 154 163 155 165 160 183 180 170 151 145 149 152 166 173 147 50 41 44 44 59 161 141 122 124 145 157 172 184 198 200 201 173 326 327 323 321 328 340 347 352
200 212 215 220 194 172 164 170 159 168 186 173 153 156 151 141 145 146 143 168 315 279 328 113 122 137 152 23 8 13 9 253 85 59 43 43 57 100 124 126 128 128 71 21 7 346 338 326 327 328 333 344 347 352
214 227 228 263 222 209 184 170 158 148 38 45 84 89 119 141 149 147 148 310 330 323 327 336 336 345 354 353 8 10 2 347 338 343 359 4 356 348 350 351 345 347 352 11 25 27 17 15 14 9 360 353 347 341
218 237 244 239 234 207 193 189 178 173 138 103 93 71 86 113 154 352 346 337 344 341 342 346 350 338 345 353 335 334 348 344 339 334 324 335 339 335 331 333 333 335 335 335 337 341 354 351 351 348 343 343 349 348
226 253 248 240 241 234 241 263 254 263 275 277 249 178 64 31 22 350 344 349 352 352 348 354 354 349 333 348 355 10 357 352 346 344 339 336 331 318 311 323 328 330 335 339 342 351 356 357 352 347 346 345 345 350
232 257 265 271 253 260 247 259 276 308 286 324 6 305 23 27 20 350 340 353 353 344 342 346 353 0 0 355 343 343 4 7 11 2 350 341 335 327 324 328 326 326 333 336 340 341 344 345 342 340 339 337 337 337